Tulcea, Romania

1:08 PM EEST on September 28, 2016 (GMT +0300)
Cataloi

Weather History for LRTC - May, 2014

Change the Weather History Date:

Friday, May 2, 2014

  Actual Average Record
Temperature  
Mean Temperature 58 °F -  
Max Temperature 70 °F 67 °F 90 °F (2012)
Min Temperature 46 °F 49 °F 41 °F (2007)
Degree Days  
Heating Degree Days 7    
Growing Degree Days 8 (Base 50)    
Moisture  
Dew Point 52 °F    
Average Humidity 80    
Maximum Humidity 100    
Minimum Humidity 45    
Precipitation  
Precipitation 0.00 in - - ()
Sea Level Pressure  
Sea Level Pressure 29.80 in    
Wind  
Wind Speed 4 mph ()    
Max Wind Speed 12 mph    
Max Gust Speed -    
Visibility 4.2 miles    
Events Fog , Rain    
Averages and records for this station are not official NWS values.
T = Trace of Precipitation, MM = Missing Value Source: Averaged Metar Reports

Daily Weather History Graph

Daily Weather History Graph

Search for Another Location

Airport or City:

Trip Planner

Search our weather history database for the weather conditions in past years. The results will help you decide how hot, cold, wet, or windy it might be!

Date:

Astronomy

May. 02, 2014 Rise Set
Actual Time 5:53 AM EEST 8:11 PM EEST
Civil Twilight 5:20 AM EEST 8:44 PM EEST
Nautical Twilight 4:40 AM EEST 9:24 PM EEST
Astronomical Twilight 3:55 AM EEST 10:10 PM EEST
Moon 8:11 AM EEST (5/2) 11:21 PM EEST (5/2)
Length of Visible Light 15h 23m
Length of Day
14h 18m
Waxing Crescent, 10% of the Moon is Illuminated
May 2
Waxing Crescent
May 7
First Quarter
May 14
Full
May 21
Last Quarter
May 28
New

Hourly Weather History & Observations

Time (EEST) Temp. Windchill Dew Point Humidity Pressure Visibility Wind Dir Wind Speed Gust Speed Precip Events Conditions
12:00 AM 54 °F - 51 °F 84% 29.78 in 6 mi South 4.5 mph - -  
12:00 AM 50.0 °F - 48.2 °F 94% 29.80 in - Calm Calm - N/A   Mist
1:00 AM 53 °F - 51 °F 88% 29.79 in 6 mi North 2.2 mph - -  
1:00 AM 50.0 °F - 50.0 °F 100% 29.80 in 1.5 mi Calm Calm - N/A Fog Fog
2:00 AM 49 °F - 48 °F 94% 29.79 in 6 mi SE 2.2 mph - -  
2:00 AM 48.2 °F - 46.4 °F 93% 29.77 in 1.4 mi East 2.3 mph - N/A   Unknown
3:00 AM 49 °F - 49 °F 98% 29.78 in - ESE 2.2 mph - -  
3:00 AM 48.2 °F - 48.2 °F 100% 29.77 in 0.2 mi Calm Calm - N/A Fog Fog
4:00 AM 50 °F - 49 °F 97% 29.78 in - ENE 2.2 mph - -  
4:00 AM 44.6 °F 42.2 °F 42.8 °F 93% 29.77 in 0.2 mi East 4.6 mph - N/A Fog Fog
5:00 AM 48 °F - 48 °F 100% 29.78 in - East 2.2 mph - -  
5:00 AM 44.6 °F - 44.6 °F 100% 29.77 in 0.1 mi Calm Calm - N/A Fog Fog
5:30 AM 46.4 °F - 46.4 °F 100% 29.77 in 0.1 mi Calm Calm - N/A Fog Fog
6:00 AM 47 °F - 46 °F 97% 29.78 in - East 2.2 mph - -  
6:00 AM 48.2 °F - 46.4 °F 93% 29.77 in 0.0 mi East 2.3 mph - N/A Fog Fog
6:30 AM 48.2 °F - 48.2 °F 100% 29.77 in 0.1 mi East 2.3 mph - N/A   Drizzle
7:00 AM 48 °F - 48 °F 100% 29.79 in - ENE 2.2 mph - -  
7:00 AM 48.2 °F - 48.2 °F 100% 29.77 in 0.1 mi East 2.3 mph - N/A   Drizzle
7:30 AM 50.0 °F - 50.0 °F 100% 29.80 in 0.1 mi East 2.3 mph - N/A Rain Light Rain Showers
8:00 AM 53 °F - 53 °F 98% 29.79 in 2 mi East 2.2 mph - -   Mist
8:00 AM 50.0 °F - 50.0 °F 100% 29.80 in 0.1 mi Variable 2.3 mph - N/A Fog Fog
8:30 AM 51.8 °F - 51.8 °F 100% 29.80 in 0.1 mi Variable 2.3 mph - N/A Fog Fog
9:00 AM 55 °F - 54 °F 96% 29.81 in 0 mi East 6.7 mph - - Fog Partial Fog
9:00 AM 53.6 °F - 53.6 °F 100% 29.80 in 0.2 mi Variable 2.3 mph - N/A Fog Fog
9:30 AM 53.6 °F - 53.6 °F 100% 29.80 in 0.5 mi SE 4.6 mph - N/A Fog Fog
10:00 AM 58 °F - 55 °F 85% 29.81 in 0 mi South 4.5 mph - - Fog Partial Fog
10:00 AM 55.4 °F - 53.6 °F 94% 29.80 in 3.1 mi SE 4.6 mph - N/A   Mostly Cloudy
10:30 AM 55.4 °F - 55.4 °F 100% 29.83 in 3.1 mi ESE 4.6 mph - N/A   Mostly Cloudy
11:00 AM 62 °F - 55 °F 73% 29.82 in 6 mi SSE 4.5 mph - - Fog Light Fog
11:00 AM 60.8 °F - 57.2 °F 88% 29.83 in 5.6 mi ESE 4.6 mph - N/A   Partly Cloudy
11:30 AM 64.4 °F - 57.2 °F 77% 29.83 in 6.2 mi ESE 4.6 mph - N/A   Partly Cloudy
12:00 PM 66 °F - 56 °F 63% 29.82 in 6 mi SE 4.5 mph - -   Scattered Clouds
12:00 PM 66.2 °F - 55.4 °F 68% 29.80 in 6.2 mi ESE 6.9 mph - N/A   Partly Cloudy
12:30 PM 68.0 °F - 57.2 °F 68% 29.80 in 6.2 mi ESE 6.9 mph - N/A   Partly Cloudy
1:00 PM 68 °F - 56 °F 55% 29.82 in 6 mi SSE 4.5 mph - -   Partly Cloudy
1:00 PM 69.8 °F - 55.4 °F 60% 29.80 in 6.2 mi Variable 2.3 mph - N/A   Partly Cloudy
1:30 PM 69.8 °F - 55.4 °F 60% 29.80 in 6.2 mi East 4.6 mph - N/A   Partly Cloudy
2:00 PM 68 °F - 54 °F 51% 29.82 in 6 mi NE 4.5 mph - -   Mostly Cloudy
2:00 PM 69.8 °F - 55.4 °F 60% 29.80 in 6.2 mi ESE 4.6 mph - N/A   Partly Cloudy
2:30 PM 69.8 °F - 53.6 °F 56% 29.80 in 6.2 mi ESE 6.9 mph - N/A   Scattered Clouds
3:00 PM 69 °F - 52 °F 45% 29.81 in 6 mi East 4.5 mph - -   Mostly Cloudy
3:00 PM 69.8 °F - 51.8 °F 53% 29.80 in 6.2 mi East 4.6 mph - N/A   Scattered Clouds
3:30 PM 68.0 °F - 53.6 °F 60% 29.80 in 6.2 mi SE 9.2 mph - N/A   Scattered Clouds
4:00 PM 68 °F - 54 °F 51% 29.80 in 6 mi South 6.7 mph - -   Partly Cloudy
4:00 PM 66.2 °F - 53.6 °F 64% 29.80 in 6.2 mi ESE 11.5 mph - N/A   Partly Cloudy
4:30 PM 66.2 °F - 55.4 °F 68% 29.80 in 6.2 mi ESE 9.2 mph - N/A   Partly Cloudy
5:00 PM 67 °F - 52 °F 49% 29.80 in 6 mi South 11.2 mph - -   Scattered Clouds
5:00 PM 66.2 °F - 55.4 °F 68% 29.80 in 6.2 mi SE 9.2 mph - N/A   Partly Cloudy
5:30 PM 66.2 °F - 53.6 °F 64% 29.80 in 6.2 mi SE 9.2 mph - N/A   Partly Cloudy
6:00 PM 67 °F - 51 °F 47% 29.81 in 6 mi South 11.2 mph - -   Scattered Clouds
6:00 PM 64.4 °F - 51.8 °F 64% 29.80 in 6.2 mi SE 9.2 mph - N/A   Partly Cloudy
6:30 PM 62.6 °F - 51.8 °F 68% 29.80 in 6.2 mi SSE 9.2 mph - N/A   Partly Cloudy
7:00 PM 65 °F - 51 °F 50% 29.81 in 6 mi South 8.9 mph - -   Scattered Clouds
7:00 PM 64.4 °F - 53.6 °F 68% 29.80 in 6.2 mi SSE 6.9 mph - N/A   Partly Cloudy
7:30 PM 60.8 °F - 51.8 °F 72% 29.83 in - SE 6.9 mph - N/A   Clear
8:00 PM 62 °F - 52 °F 60% 29.83 in 6 mi South 6.7 mph - -   Scattered Clouds
8:00 PM 59.0 °F - 53.6 °F 82% 29.83 in 6.2 mi SE 6.9 mph - N/A   Partly Cloudy
8:30 PM 57.2 °F - 51.8 °F 82% 29.83 in 6.2 mi ESE 2.3 mph - N/A   Scattered Clouds
9:00 PM 59 °F - 52 °F 72% 29.84 in 6 mi ESE 4.5 mph - -   Scattered Clouds
9:00 PM 55.4 °F - 53.6 °F 94% 29.86 in 6.2 mi SE 4.6 mph - N/A   Partly Cloudy
10:00 PM 58 °F - 54 °F 83% 29.85 in 6 mi SSE 4.5 mph - -   Partly Cloudy
10:00 PM 55.4 °F - 53.6 °F 94% 29.86 in 3.1 mi SSE 4.6 mph - N/A   Partly Cloudy
11:00 PM 57 °F - 54 °F 87% 29.86 in 6 mi SSW 4.5 mph - -  
11:00 PM 53.6 °F - 51.8 °F 94% 29.86 in 1.2 mi SE 2.3 mph - N/A   Unknown